Previsão horária em Abdukarim

Hoje, 30 Setembro, Quarta-feira

Tempo Temperatura Precipitação Vento Pressão Humidade
00:00 +12°C° 0.4 mm 2 m/s 699 mmHg 85%
01:00 +12°C° 0.4 mm 2 m/s 699 mmHg 87%
02:00 +12°C° 0.4 mm 2 m/s 698 mmHg 88%
03:00 +12°C° 0.4 mm 2 m/s 699 mmHg 88%
04:00 +12°C° 0.4 mm 1 m/s 699 mmHg 87%
05:00 +12°C° 0 mm 1 m/s 699 mmHg 88%
06:00 +12°C° 0.3 mm 1 m/s 699 mmHg 83%
07:00 +12°C° 0.3 mm 1 m/s 699 mmHg 78%
08:00 +13°C° 0.3 mm 1 m/s 699 mmHg 74%
09:00 +14°C° 0 mm 1 m/s 699 mmHg 64%
10:00 +15°C° 0 mm 2 m/s 700 mmHg 53%
11:00 +17°C° 0 mm 3 m/s 700 mmHg 43%
12:00 +17°C° 0 mm 3 m/s 700 mmHg 39%
13:00 +18°C° 0 mm 3 m/s 700 mmHg 35%
14:00 +19°C° 0 mm 3 m/s 699 mmHg 30%
15:00 +19°C° 0 mm 3 m/s 699 mmHg 29%
16:00 +19°C° 0 mm 3 m/s 699 mmHg 28%
17:00 +18°C° 0 mm 3 m/s 700 mmHg 28%
18:00 +17°C° 0 mm 2 m/s 700 mmHg 31%
19:00 +16°C° 0 mm 2 m/s 699 mmHg 35%
20:00 +14°C° 0 mm 1 m/s 699 mmHg 38%
21:00 +13°C° 0 mm 1 m/s 699 mmHg 44%
22:00 +13°C° 0 mm 1 m/s 699 mmHg 51%
23:00 +12°C° 0 mm 1 m/s 698 mmHg 57%

Amanhã, 1 Outubro, Quinta-feira

Tempo Temperatura Precipitação Vento Pressão Humidade
00:00 +12°C° 0 mm 1 m/s 698 mmHg 59%
01:00 +11°C° 0 mm 1 m/s 698 mmHg 61%
02:00 +11°C° 0 mm 1 m/s 698 mmHg 63%
03:00 +11°C° 0 mm 1 m/s 698 mmHg 62%
04:00 +11°C° 0 mm 1 m/s 698 mmHg 62%
05:00 +11°C° 0 mm 1 m/s 698 mmHg 61%
06:00 +11°C° 0 mm 0 m/s 698 mmHg 56%
07:00 +12°C° 0 mm 0 m/s 699 mmHg 51%
08:00 +13°C° 0 mm 0 m/s 699 mmHg 46%
09:00 +15°C° 0 mm 1 m/s 699 mmHg 42%
10:00 +17°C° 0 mm 2 m/s 699 mmHg 37%
11:00 +19°C° 0 mm 2 m/s 699 mmHg 33%
12:00 +19°C° 0 mm 2 m/s 699 mmHg 31%
13:00 +20°C° 0 mm 2 m/s 699 mmHg 29%
14:00 +21°C° 0 mm 3 m/s 699 mmHg 27%
15:00 +21°C° 0 mm 2 m/s 699 mmHg 27%
16:00 +21°C° 0 mm 2 m/s 698 mmHg 26%
17:00 +21°C° 0 mm 2 m/s 698 mmHg 26%
18:00 +19°C° 0 mm 2 m/s 698 mmHg 31%
19:00 +18°C° 0 mm 2 m/s 698 mmHg 36%
20:00 +16°C° 0 mm 2 m/s 698 mmHg 41%
21:00 +15°C° 0 mm 2 m/s 698 mmHg 43%
22:00 +15°C° 0 mm 2 m/s 698 mmHg 45%
23:00 +14°C° 0 mm 2 m/s 698 mmHg 48%

Depois de amanhã, 2 Outubro, Sexta-feira

Tempo Temperatura Precipitação Vento Pressão Humidade
00:00 +14°C° 0 mm 1 m/s 698 mmHg 48%
01:00 +13°C° 0 mm 1 m/s 698 mmHg 48%
02:00 +13°C° 0 mm 1 m/s 698 mmHg 49%
03:00 +12°C° 0 mm 0 m/s 698 mmHg 49%
04:00 +11°C° 0 mm 0 m/s 698 mmHg 50%
05:00 +11°C° 0 mm 0 m/s 698 mmHg 51%
06:00 +12°C° 0 mm 0 m/s 698 mmHg 47%
07:00 +13°C° 0 mm 0 m/s 699 mmHg 44%
08:00 +14°C° 0 mm 0 m/s 699 mmHg 41%
09:00 +18°C° 0 mm 1 m/s 699 mmHg 36%
10:00 +19°C° 0 mm 1 m/s 699 mmHg 32%
11:00 +21°C° 0 mm 1 m/s 700 mmHg 28%
12:00 +21°C° 0 mm 2 m/s 700 mmHg 25%
13:00 +23°C° 0 mm 2 m/s 699 mmHg 22%
14:00 +23°C° 0 mm 2 m/s 699 mmHg 19%
15:00 +22°C° 0 mm 3 m/s 699 mmHg 18%
16:00 +22°C° 0 mm 3 m/s 699 mmHg 16%
17:00 +22°C° 0 mm 3 m/s 699 mmHg 15%
18:00 +20°C° 0 mm 3 m/s 699 mmHg 16%
19:00 +18°C° 0 mm 2 m/s 699 mmHg 17%
20:00 +16°C° 0 mm 1 m/s 699 mmHg 19%
21:00 +16°C° 0 mm 1 m/s 699 mmHg 19%
22:00 +15°C° 0 mm 1 m/s 699 mmHg 19%
23:00 +14°C° 0 mm 1 m/s 699 mmHg 20%

3 Outubro, Sábado

Tempo Temperatura Precipitação Vento Pressão Humidade
00:00 +14°C° 0 mm 1 m/s 699 mmHg 20%
01:00 +14°C° 0 mm 1 m/s 699 mmHg 21%
02:00 +13°C° 0 mm 1 m/s 698 mmHg 21%
03:00 +13°C° 0 mm 1 m/s 699 mmHg 21%
04:00 +13°C° 0 mm 1 m/s 699 mmHg 22%
05:00 +12°C° 0 mm 1 m/s 699 mmHg 22%
06:00 +14°C° 0 mm 1 m/s 699 mmHg 20%
07:00 +15°C° 0 mm 1 m/s 700 mmHg 18%
08:00 +16°C° 0 mm 1 m/s 700 mmHg 17%
09:00 +19°C° 0 mm 1 m/s 700 mmHg 16%
10:00 +19°C° 0 mm 2 m/s 700 mmHg 14%
11:00 +21°C° 0 mm 2 m/s 701 mmHg 12%
12:00 +23°C° 0 mm 2 m/s 700 mmHg 12%
13:00 +22°C° 0 mm 3 m/s 700 mmHg 12%
14:00 +24°C° 0 mm 3 m/s 700 mmHg 12%
15:00 +24°C° 0 mm 3 m/s 700 mmHg 12%
16:00 +24°C° 0 mm 3 m/s 700 mmHg 12%
17:00 +22°C° 0 mm 3 m/s 700 mmHg 12%
18:00 +20°C° 0 mm 2 m/s 700 mmHg 15%
19:00 +18°C° 0 mm 2 m/s 700 mmHg 17%
20:00 +16°C° 0 mm 1 m/s 700 mmHg 19%
21:00 +16°C° 0 mm 1 m/s 700 mmHg 20%
22:00 +15°C° 0 mm 1 m/s 700 mmHg 22%
23:00 +15°C° 0 mm 1 m/s 700 mmHg 23%

4 Outubro, Domingo

Tempo Temperatura Precipitação Vento Pressão Humidade
00:00 +14°C° 0 mm 1 m/s 700 mmHg 24%
01:00 +14°C° 0 mm 1 m/s 700 mmHg 24%
02:00 +14°C° 0 mm 1 m/s 700 mmHg 25%
03:00 +13°C° 0 mm 1 m/s 699 mmHg 26%
04:00 +13°C° 0 mm 1 m/s 699 mmHg 27%
05:00 +13°C° 0 mm 2 m/s 699 mmHg 27%
06:00 +14°C° 0 mm 2 m/s 700 mmHg 26%
07:00 +14°C° 0 mm 2 m/s 700 mmHg 25%
08:00 +15°C° 0 mm 2 m/s 701 mmHg 24%
09:00 +17°C° 0 mm 2 m/s 701 mmHg 22%
10:00 +18°C° 0 mm 3 m/s 701 mmHg 20%
11:00 +20°C° 0 mm 3 m/s 701 mmHg 18%
12:00 +21°C° 0 mm 4 m/s 701 mmHg 18%
13:00 +21°C° 0 mm 4 m/s 701 mmHg 17%
14:00 +22°C° 0 mm 4 m/s 701 mmHg 16%
15:00 +21°C° 0 mm 4 m/s 700 mmHg 17%
16:00 +21°C° 0 mm 4 m/s 700 mmHg 18%
17:00 +20°C° 0 mm 5 m/s 700 mmHg 19%
18:00 +19°C° 0 mm 4 m/s 700 mmHg 21%
19:00 +17°C° 0 mm 4 m/s 700 mmHg 24%
20:00 +14°C° 0 mm 3 m/s 700 mmHg 27%
21:00 +14°C° 0 mm 3 m/s 700 mmHg 29%
22:00 +13°C° 0 mm 3 m/s 700 mmHg 30%
23:00 +12°C° 0 mm 3 m/s 700 mmHg 31%

5 Outubro, Segunda-feira

Tempo Temperatura Precipitação Vento Pressão Humidade
00:00 +13°C° 0 mm 2 m/s 700 mmHg 33%
01:00 +12°C° 0 mm 2 m/s 700 mmHg 34%
02:00 +12°C° 0 mm 2 m/s 699 mmHg 35%
03:00 +10°C° 0 mm 2 m/s 699 mmHg 37%
04:00 +10°C° 0 mm 2 m/s 699 mmHg 38%
05:00 +10°C° 0 mm 2 m/s 699 mmHg 39%
06:00 +12°C° 0 mm 2 m/s 699 mmHg 37%
07:00 +12°C° 0 mm 2 m/s 699 mmHg 35%
08:00 +13°C° 0 mm 2 m/s 700 mmHg 34%
09:00 +15°C° 0 mm 2 m/s 700 mmHg 30%
10:00 +17°C° 0 mm 3 m/s 700 mmHg 26%
11:00 +19°C° 0 mm 3 m/s 700 mmHg 23%
12:00 +20°C° 0 mm 3 m/s 700 mmHg 21%
13:00 +20°C° 0 mm 3 m/s 700 mmHg 20%
14:00 +21°C° 0 mm 3 m/s 699 mmHg 18%
15:00 +21°C° 0 mm 3 m/s 699 mmHg 19%
16:00 +21°C° 0 mm 3 m/s 699 mmHg 19%
17:00 +20°C° 0 mm 3 m/s 699 mmHg 20%
18:00 +19°C° 0 mm 3 m/s 699 mmHg 23%
19:00 +17°C° 0 mm 3 m/s 699 mmHg 26%
20:00 +16°C° 0 mm 3 m/s 699 mmHg 29%
21:00 +14°C° 0 mm 3 m/s 699 mmHg 30%
22:00 +14°C° 0 mm 2 m/s 699 mmHg 31%
23:00 +14°C° 0 mm 2 m/s 699 mmHg 33%
Mostrar mais